• In Spain
  • List of Countries
  • For 7 days
  • Water Temperature
  • Satellite Maps
  • Weather Map
  • Weather Widgets
  • user-avatar
    Login

    Hourly Weather Karamyshevo

    Today, 22 April, Sunday

    Time Temperature Precipitation Wind Pressure Humidity
    00:00 +5°C° 0 mm 8 mps 730 mmHg 70%
    01:00 +5°C° 0 mm 8 mps 731 mmHg 70%
    02:00 +5°C° 0 mm 5 mps 731 mmHg 73%
    03:00 +4°C° 0 mm 6 mps 732 mmHg 73%
    04:00 +4°C° 0 mm 7 mps 732 mmHg 73%
    05:00 +4°C° 0 mm 8 mps 732 mmHg 73%
    06:00 +4°C° 0 mm 8 mps 733 mmHg 70%
    07:00 +5°C° 0 mm 8 mps 733 mmHg 67%
    08:00 +5°C° 0 mm 8 mps 733 mmHg 63%
    09:00 +5°C° 0.1 mm 8 mps 733 mmHg 62%
    10:00 +5°C° 0.1 mm 7 mps 734 mmHg 61%
    11:00 +6°C° 0.1 mm 7 mps 734 mmHg 60%
    12:00 +6°C° 0.1 mm 7 mps 735 mmHg 59%
    13:00 +6°C° 0.1 mm 7 mps 735 mmHg 58%
    14:00 +6°C° 0.1 mm 7 mps 735 mmHg 57%
    15:00 +5°C° 0 mm 7 mps 736 mmHg 57%
    16:00 +5°C° 0 mm 6 mps 736 mmHg 58%
    17:00 +4°C° 0 mm 6 mps 737 mmHg 58%
    18:00 +3°C° 0 mm 6 mps 737 mmHg 61%
    19:00 +3°C° 0 mm 5 mps 738 mmHg 64%
    20:00 +3°C° 0 mm 4 mps 739 mmHg 66%
    21:00 +1°C° 0 mm 4 mps 739 mmHg 67%
    22:00 0°C° 0 mm 4 mps 740 mmHg 68%
    23:00 0°C° 0 mm 4 mps 740 mmHg 70%

    Tomorrow, 23 April, Monday

    Time Temperature Precipitation Wind Pressure Humidity
    00:00 -1°C° 0 mm 4 mps 741 mmHg 70%
    01:00 -1°C° 0 mm 4 mps 741 mmHg 70%
    02:00 -2°C° 0 mm 4 mps 742 mmHg 71%
    03:00 -2°C° 0 mm 4 mps 742 mmHg 72%
    04:00 -3°C° 0 mm 4 mps 743 mmHg 72%
    05:00 -3°C° 0 mm 4 mps 743 mmHg 73%
    06:00 -2°C° 0 mm 5 mps 743 mmHg 65%
    07:00 -1°C° 0 mm 5 mps 744 mmHg 57%
    08:00 -1°C° 0 mm 6 mps 744 mmHg 49%
    09:00 +1°C° 0 mm 6 mps 744 mmHg 46%
    10:00 +2°C° 0 mm 5 mps 744 mmHg 44%
    11:00 +3°C° 0 mm 5 mps 745 mmHg 42%
    12:00 +5°C° 0 mm 5 mps 745 mmHg 41%
    13:00 +5°C° 0 mm 5 mps 745 mmHg 41%
    14:00 +6°C° 0 mm 5 mps 745 mmHg 41%
    15:00 +6°C° 0 mm 5 mps 745 mmHg 41%
    16:00 +6°C° 0 mm 5 mps 745 mmHg 42%
    17:00 +5°C° 0 mm 4 mps 745 mmHg 43%
    18:00 +4°C° 0 mm 3 mps 745 mmHg 49%
    19:00 +3°C° 0 mm 3 mps 746 mmHg 54%
    20:00 +3°C° 0 mm 2 mps 746 mmHg 59%
    21:00 +2°C° 0 mm 2 mps 746 mmHg 61%
    22:00 +3°C° 0 mm 1 mps 746 mmHg 63%
    23:00 +2°C° 0 mm 1 mps 746 mmHg 64%

    Day after tomorrow, 24 April, Tuesday

    Time Temperature Precipitation Wind Pressure Humidity
    00:00 +2°C° 0 mm 1 mps 746 mmHg 65%
    01:00 +2°C° 0 mm 1 mps 746 mmHg 65%
    02:00 +1°C° 0 mm 1 mps 746 mmHg 66%
    03:00 +1°C° 0 mm 1 mps 747 mmHg 65%
    04:00 +2°C° 0 mm 1 mps 747 mmHg 65%
    05:00 +2°C° 0 mm 1 mps 747 mmHg 64%
    06:00 +4°C° 0 mm 1 mps 747 mmHg 58%
    07:00 +5°C° 0 mm 1 mps 747 mmHg 53%
    08:00 +6°C° 0 mm 2 mps 747 mmHg 47%
    09:00 +7°C° 0 mm 2 mps 746 mmHg 44%
    10:00 +8°C° 0 mm 2 mps 746 mmHg 41%
    11:00 +9°C° 0 mm 2 mps 746 mmHg 38%
    12:00 +10°C° 0 mm 3 mps 745 mmHg 37%
    13:00 +10°C° 0 mm 3 mps 745 mmHg 37%
    14:00 +11°C° 0 mm 3 mps 744 mmHg 37%
    15:00 +11°C° 0 mm 3 mps 744 mmHg 40%
    16:00 +12°C° 0 mm 2 mps 744 mmHg 43%
    17:00 +10°C° 0 mm 2 mps 743 mmHg 46%
    18:00 +10°C° 0 mm 2 mps 743 mmHg 50%
    19:00 +9°C° 0 mm 2 mps 743 mmHg 54%
    20:00 +8°C° 0 mm 3 mps 743 mmHg 58%
    21:00 +7°C° 0.2 mm 3 mps 743 mmHg 63%
    22:00 +7°C° 0.2 mm 3 mps 743 mmHg 68%
    23:00 +7°C° 0.2 mm 3 mps 743 mmHg 73%

    25 April, Wednesday

    Time Temperature Precipitation Wind Pressure Humidity
    00:00 +7°C° 0.5 mm 3 mps 742 mmHg 79%
    01:00 +7°C° 0.5 mm 3 mps 742 mmHg 84%
    02:00 +6°C° 0.5 mm 4 mps 742 mmHg 89%
    03:00 +6°C° 0.4 mm 4 mps 742 mmHg 91%
    04:00 +6°C° 0.4 mm 4 mps 741 mmHg 92%
    05:00 +6°C° 0.4 mm 4 mps 741 mmHg 94%
    06:00 +7°C° 0.1 mm 4 mps 741 mmHg 92%
    07:00 +7°C° 0.1 mm 4 mps 741 mmHg 89%
    08:00 +8°C° 0.1 mm 4 mps 741 mmHg 87%
    09:00 +10°C° 0 mm 4 mps 741 mmHg 81%
    10:00 +11°C° 0 mm 4 mps 741 mmHg 76%
    11:00 +12°C° 0 mm 5 mps 741 mmHg 70%
    12:00 +13°C° 0 mm 5 mps 741 mmHg 67%
    13:00 +14°C° 0 mm 5 mps 741 mmHg 63%
    14:00 +14°C° 0 mm 5 mps 740 mmHg 59%
    15:00 +13°C° 0.2 mm 5 mps 740 mmHg 65%
    16:00 +12°C° 0.2 mm 5 mps 740 mmHg 71%
    17:00 +10°C° 0.2 mm 5 mps 739 mmHg 76%
    18:00 +10°C° 0.3 mm 5 mps 739 mmHg 80%
    19:00 +10°C° 0.3 mm 5 mps 739 mmHg 84%
    20:00 +9°C° 0.3 mm 6 mps 739 mmHg 88%
    21:00 +9°C° 0.1 mm 5 mps 739 mmHg 89%
    22:00 +9°C° 0.1 mm 5 mps 739 mmHg 90%
    23:00 +8°C° 0.1 mm 5 mps 739 mmHg 92%

    26 April, Thursday

    Time Temperature Precipitation Wind Pressure Humidity
    00:00 +8°C° 0 mm 5 mps 739 mmHg 91%
    01:00 +7°C° 0 mm 4 mps 739 mmHg 90%
    02:00 +7°C° 0 mm 3 mps 739 mmHg 90%
    03:00 +7°C° 0.3 mm 3 mps 739 mmHg 90%
    04:00 +7°C° 0.3 mm 3 mps 739 mmHg 89%
    05:00 +7°C° 0.3 mm 3 mps 739 mmHg 89%
    06:00 +6°C° 0.4 mm 4 mps 739 mmHg 86%
    07:00 +7°C° 0.4 mm 4 mps 739 mmHg 83%
    08:00 +7°C° 0.4 mm 4 mps 739 mmHg 80%
    09:00 +8°C° 0.1 mm 4 mps 740 mmHg 75%
    10:00 +9°C° 0.1 mm 5 mps 740 mmHg 70%
    11:00 +10°C° 0.1 mm 6 mps 740 mmHg 66%
    12:00 +10°C° 0.1 mm 6 mps 740 mmHg 61%
    13:00 +11°C° 0.1 mm 6 mps 740 mmHg 56%
    14:00 +12°C° 0.1 mm 7 mps 740 mmHg 52%
    15:00 +13°C° 0.1 mm 6 mps 741 mmHg 53%
    16:00 +13°C° 0.1 mm 5 mps 741 mmHg 55%
    17:00 +12°C° 0.1 mm 5 mps 741 mmHg 57%
    18:00 +11°C° 0 mm 4 mps 742 mmHg 62%
    19:00 +10°C° 0 mm 4 mps 742 mmHg 67%
    20:00 +8°C° 0 mm 3 mps 743 mmHg 73%
    21:00 +8°C° 0 mm 3 mps 743 mmHg 74%
    22:00 +7°C° 0 mm 3 mps 744 mmHg 75%
    23:00 +7°C° 0 mm 3 mps 744 mmHg 77%

    27 April, Friday

    Time Temperature Precipitation Wind Pressure Humidity
    00:00 +7°C° 0 mm 3 mps 744 mmHg 78%
    01:00 +5°C° 0 mm 3 mps 744 mmHg 79%
    02:00 +5°C° 0 mm 3 mps 745 mmHg 80%
    03:00 +5°C° 0 mm 3 mps 745 mmHg 80%
    04:00 +5°C° 0 mm 3 mps 745 mmHg 80%
    05:00 +5°C° 0 mm 4 mps 745 mmHg 80%
    06:00 +7°C° 0 mm 4 mps 745 mmHg 75%
    07:00 +8°C° 0 mm 5 mps 744 mmHg 70%
    08:00 +10°C° 0 mm 6 mps 744 mmHg 65%
    09:00 +10°C° 0.2 mm 6 mps 744 mmHg 67%
    10:00 +10°C° 0.2 mm 6 mps 744 mmHg 70%
    11:00 +11°C° 0.2 mm 7 mps 744 mmHg 72%
    12:00 +10°C° 0.6 mm 6 mps 743 mmHg 74%
    13:00 +10°C° 0.6 mm 6 mps 743 mmHg 75%
    14:00 +10°C° 0.6 mm 5 mps 743 mmHg 77%
    15:00 +11°C° 0.5 mm 4 mps 742 mmHg 81%
    16:00 +10°C° 0.5 mm 3 mps 742 mmHg 85%
    17:00 +10°C° 0.5 mm 2 mps 741 mmHg 89%
    18:00 +10°C° 0 mm 2 mps 742 mmHg 91%
    19:00 +9°C° 0 mm 2 mps 742 mmHg 93%
    20:00 +9°C° 0 mm 3 mps 742 mmHg 95%
    21:00 +8°C° 0 mm 3 mps 743 mmHg 95%
    22:00 +7°C° 0 mm 4 mps 743 mmHg 94%
    23:00 +7°C° 0 mm 4 mps 744 mmHg 94%
    Show more